New Orleans, LA

1:49 AM CDT on September 29, 2016 (GMT -0500)
Lakefront

Weather History for KNEW - December, 2012

Change the Weather History Date:

Tuesday, December 25, 2012

  Actual Average Record
Temperature  
Mean Temperature 64 °F 54 °F  
Max Temperature 76 °F 63 °F 82 °F (2015)
Min Temperature 52 °F 46 °F 14 °F (1983)
Degree Days  
Heating Degree Days 1 12  
Month to date heating degree days 120 246  
Since 1 July heating degree days 309 410  
Cooling Degree Days 0 1  
Month to date cooling degree days 35 25  
Year to date cooling degree days 3409 3003  
Growing Degree Days 20 (Base 50)    
Moisture  
Dew Point 62 °F    
Average Humidity 82    
Maximum Humidity 100    
Minimum Humidity 64    
Precipitation  
Precipitation 0.96 in 0.18 in 4.01 in (1973)
Month to date precipitation 4.57 4.19  
Year to date precipitation 67.70 61.40  
Snow  
Snow 0.00 in - - ()
Month to date snowfall 0.0  
Since 1 July snowfall 0.0  
Snow Depth 0.00 in    
Sea Level Pressure  
Sea Level Pressure 29.70 in    
Wind  
Wind Speed 16 mph (SSW)    
Max Wind Speed 32 mph    
Max Gust Speed 43 mph    
Visibility 6 miles    
Events Fog , Rain    
T = Trace of Precipitation, MM = Missing Value Source: NWS Daily Summary

Daily Weather History Graph

Daily Weather History Graph

Search for Another Location

Airport or City:

Trip Planner

Search our weather history database for the weather conditions in past years. The results will help you decide how hot, cold, wet, or windy it might be!

Date:

Astronomy

Dec. 25, 2012 Rise Set
Actual Time 6:54 AM CST 5:07 PM CST
Civil Twilight 6:27 AM CST 5:33 PM CST
Nautical Twilight 5:57 AM CST 6:03 PM CST
Astronomical Twilight 5:28 AM CST 6:32 PM CST
Moon 3:12 PM CST (12/25) 4:29 AM CST (12/25)
Length of Visible Light 11h 05m
Length of Day
10h 13m
Waxing Gibbous, 94% of the Moon is Illuminated
Dec 25
Waxing Gibbous
Dec 28
Full
Jan 4
Last Quarter
Jan 11
New
Jan 18
First Quarter

Hourly Weather History & Observations

Time (CST) Temp. Dew Point Humidity Pressure Visibility Wind Dir Wind Speed Gust Speed Precip Events Conditions
12:27 AM 66.2 °F 62.6 °F 88% 29.87 in 3.0 mi South 6.9 mph - N/A   Scattered Clouds
12:30 AM 68.0 °F 62.6 °F 83% 29.87 in 2.5 mi South 6.9 mph - N/A   Haze
12:40 AM 68.0 °F 62.6 °F 83% 29.87 in 1.2 mi South 5.8 mph - N/A   Haze
12:53 AM 68.0 °F 64.0 °F 87% 29.85 in 0.8 mi South 6.9 mph - N/A   Overcast
1:14 AM 68.0 °F 64.4 °F 88% 29.86 in 1.2 mi South 8.1 mph - N/A   Overcast
1:36 AM 68.0 °F 64.4 °F 88% 29.85 in 0.5 mi SSE 5.8 mph - N/A Fog Fog
1:53 AM 68.0 °F 64.0 °F 87% 29.83 in 0.2 mi SSE 4.6 mph - N/A Fog Fog
2:53 AM 68.0 °F 64.0 °F 87% 29.79 in 0.5 mi SE 5.8 mph - N/A Fog Fog
3:05 AM 66.2 °F 62.6 °F 88% 29.81 in 1.0 mi SSE 5.8 mph - N/A   Mist
3:16 AM 66.2 °F 62.6 °F 88% 29.81 in 3.0 mi SSE 8.1 mph - N/A   Mostly Cloudy
3:24 AM 66.2 °F 62.6 °F 88% 29.81 in 5.0 mi SSE 6.9 mph - N/A   Mostly Cloudy
3:53 AM 68.0 °F 64.0 °F 87% 29.79 in 5.0 mi South 8.1 mph - N/A   Overcast
4:06 AM 68.0 °F 64.4 °F 88% 29.80 in 6.0 mi SSE 8.1 mph - N/A   Overcast
4:14 AM 69.8 °F 64.4 °F 83% 29.78 in 5.0 mi SE 8.1 mph - N/A   Haze
4:53 AM 69.1 °F 64.0 °F 84% 29.76 in 6.0 mi South 13.8 mph - 0.01 in   Haze
5:09 AM 69.8 °F 64.4 °F 83% 29.79 in 7.0 mi South 16.1 mph - 0.00 in Rain Light Rain
5:53 AM 70.0 °F 64.9 °F 84% 29.76 in 10.0 mi South 11.5 mph - 0.00 in   Mostly Cloudy
6:06 AM 69.8 °F 64.4 °F 83% 29.78 in 10.0 mi South 12.7 mph - N/A   Mostly Cloudy
6:13 AM 69.8 °F 64.4 °F 83% 29.79 in 10.0 mi South 13.8 mph - N/A   Scattered Clouds
6:53 AM 71.1 °F 64.9 °F 81% 29.77 in 10.0 mi South 11.5 mph - N/A   Scattered Clouds
7:53 AM 71.1 °F 64.9 °F 81% 29.75 in 10.0 mi South 12.7 mph - N/A   Mostly Cloudy
8:03 AM 71.6 °F 64.4 °F 78% 29.78 in 10.0 mi South 13.8 mph - N/A   Mostly Cloudy
8:16 AM 71.6 °F 66.2 °F 83% 29.79 in 10.0 mi South 15.0 mph - N/A   Mostly Cloudy
8:53 AM 73.0 °F 66.0 °F 79% 29.77 in 10.0 mi South 18.4 mph - N/A   Partly Cloudy
9:53 AM 75.0 °F 64.9 °F 71% 29.70 in 10.0 mi South 27.6 mph 36.8 mph N/A   Clear
10:53 AM 78.1 °F 63.0 °F 60% 29.68 in 10.0 mi South 31.1 mph 40.3 mph N/A   Scattered Clouds
11:23 AM 78.8 °F 62.6 °F 57% 29.68 in 10.0 mi South 32.2 mph 40.3 mph N/A   Mostly Cloudy
11:53 AM 79.0 °F 63.0 °F 58% 29.64 in 10.0 mi South 31.1 mph 41.4 mph N/A   Mostly Cloudy
12:00 PM 78.8 °F 62.6 °F 57% 29.65 in 10.0 mi South 32.2 mph 46.0 mph N/A   Scattered Clouds
12:50 PM 78.8 °F 62.6 °F 57% 29.66 in 10.0 mi South 25.3 mph 36.8 mph N/A   Overcast
12:53 PM 78.1 °F 63.0 °F 60% 29.64 in 10.0 mi South 25.3 mph 36.8 mph N/A   Overcast
1:53 PM 75.9 °F 64.9 °F 69% 29.61 in 8.0 mi South 20.7 mph 28.8 mph 0.00 in Rain Light Rain
2:34 PM 75.2 °F 64.4 °F 69% 29.58 in 10.0 mi South 32.2 mph 39.1 mph 0.02 in   Overcast
2:53 PM 75.9 °F 66.0 °F 71% 29.55 in 8.0 mi South 26.5 mph 40.3 mph 0.02 in   Overcast
3:31 PM 73.4 °F 66.2 °F 78% 29.54 in 1.8 mi South 25.3 mph 36.8 mph 0.10 in Rain Rain
3:42 PM 73.4 °F 64.4 °F 73% 29.57 in 4.0 mi SW 29.9 mph 41.4 mph 0.13 in Rain Light Rain
3:53 PM 73.0 °F 66.0 °F 79% 29.55 in 1.8 mi SW 19.6 mph 27.6 mph 0.18 in Rain Rain
4:02 PM 73.4 °F 66.2 °F 78% 29.55 in 2.0 mi SSW 24.2 mph 35.7 mph 0.04 in Rain Light Rain
4:13 PM 73.4 °F 64.4 °F 73% 29.55 in 10.0 mi SW 33.4 mph 43.7 mph 0.04 in   Mostly Cloudy
4:20 PM 73.4 °F 66.2 °F 78% 29.55 in 8.0 mi SSW 26.5 mph 43.7 mph 0.04 in   Overcast
4:53 PM 73.9 °F 66.0 °F 76% 29.54 in 8.0 mi SSW 28.8 mph 36.8 mph 0.04 in   Overcast
5:42 PM 73.4 °F 66.2 °F 78% 29.55 in 9.0 mi SSW 27.6 mph 35.7 mph N/A   Mostly Cloudy
5:53 PM 73.9 °F 66.0 °F 76% 29.55 in 9.0 mi SSW 25.3 mph 35.7 mph N/A   Overcast
6:19 PM 64.4 °F 55.4 °F 73% 29.59 in 1.8 mi WNW 40.3 mph 46.0 mph 0.11 in Rain Heavy Rain
6:24 PM 62.6 °F 55.4 °F 77% 29.61 in 0.8 mi WNW 23.0 mph 46.0 mph 0.24 in Rain Heavy Rain
6:33 PM 62.6 °F 55.4 °F 77% 29.60 in 2.0 mi West 21.9 mph - 0.30 in Rain Light Rain
6:36 PM 62.6 °F 55.4 °F 77% 29.60 in 4.0 mi West 25.3 mph - 0.30 in Rain Light Rain
6:53 PM 64.0 °F 54.0 °F 70% 29.60 in 10.0 mi West 17.3 mph - 0.30 in   Mostly Cloudy
7:53 PM 64.0 °F 53.1 °F 67% 29.63 in 10.0 mi West 18.4 mph - N/A   Clear
8:53 PM 64.0 °F 52.0 °F 65% 29.65 in 10.0 mi West 23.0 mph - N/A   Clear
9:53 PM 62.1 °F 50.0 °F 65% 29.69 in 10.0 mi WNW 23.0 mph 31.1 mph N/A   Clear
10:53 PM 61.0 °F 46.0 °F 58% 29.71 in 10.0 mi West 31.1 mph - N/A   Clear
11:53 PM 59.0 °F 46.0 °F 62% 29.73 in 10.0 mi West 28.8 mph - N/A   Clear